Regional Weather Roundup
Issued by NWS

Home | Current Version | Previous Version | Text Only | Print | Product List | Glossary Off
Versions: 1 2 3 4 5 6 7 8 9 10 11 12 13 14 15 16 17 18 19 20 21 22 23 24 25 26 27

000
ASUS45 KGTF 271010
RWRMT
MONTANA HOURLY WEATHER ROUNDUP
NATIONAL WEATHER SERVICE GREAT FALLS MT
400 AM MDT MON APR 27 2015

NOTE: "FAIR" INDICATES FEW OR NO CLOUDS BELOW 12000 FEET WITH NO
SIGNIFICANT WEATHER AND/OR OBSTRUCTIONS TO VISIBILITY.

MTZ001>007-043-271100-
WEST OF THE DIVIDE

CITY           SKY/WX    TMP DP  RH WIND       PRES   REMARKS
KALISPELL      SUNNY     28  27  96 CALM      30.29R FOG
MISSOULA       CLOUDY    36  35  96 N3        30.34R
BUTTE          CLEAR     28  25  88 S6        30.28S WCI  22
DEER LODGE       N/A     28  27  93 W3        30.33R
EUREKA           N/A     34  28  80 CALM      30.27S
HAMILTON         N/A     34  32  93 NE2       30.31R
LIBBY            N/A     27  25  93 CALM      30.31R
$$

MTZ008-052>055-271100-
SOUTHWEST MONTANA

CITY           SKY/WX    TMP DP  RH WIND       PRES   REMARKS
BOZEMAN        CLOUDY    35  32  88 CALM      30.30R
DILLON         PTCLDY    34  30  85 CALM      30.27R
$$

MTZ009-010-012-014-046-048-049-054-271100-
EAST SLOPES AND CENTRAL MONTANA

CITY           SKY/WX    TMP DP  RH WIND       PRES   REMARKS
CUT BANK       CLEAR     30  26  85 SW5       30.20S
GREAT FALLS    CLEAR     32  28  85 SW13      30.23S WCI  22
MALMSTROM AFB  CLEAR     30  26  87 SW6       30.25R WCI  24
HELENA         CLEAR     31  28  89 CALM      30.29R
$$

MTZ011-013-016-021-045-047-050-051-271100-
NORTH CENTRAL MONTANA

CITY           SKY/WX    TMP DP  RH WIND       PRES   REMARKS
HAVRE          CLEAR     28  25  88 SW5       30.25R
LEWISTOWN      CLEAR     29  26  89 SE5       30.24R
CHINOOK          N/A     25  23  93 CALM      30.27R
FORT BENTON      N/A     30  27  86 CALM      30.27S
$$

MTZ017>020-022>042-056>058-061-062-271100-
EASTERN PLAINS

CITY           SKY/WX    TMP DP  RH WIND       PRES   REMARKS
BAKER          LGT RAIN  37  35  92 NW8       30.25S WCI  31
BILLINGS       CLOUDY    36  33  89 S5        30.28S
GLASGOW        CLOUDY    39  36  89 W3        30.27R
JORDAN           N/A     38  36  92 W5        30.28R
LIVINGSTON     CLOUDY    37  33  85 W7        30.26R WCI  32
MILES CITY     CLOUDY    37  36  96 W8        30.28S WCI  31
SIDNEY         CLOUDY    39  36  87 NW5       30.27S
WOLF POINT     LGT RAIN  42  39  89 CALM      30.28R FOG
BIG TIMBER       N/A     34  32  93 CALM      30.26S
FORSYTH          N/A     37  37 100 SW5       30.29S
PLENTYWOOD       N/A     39  39 100 W3        30.25R
POPLAR           N/A     41  41 100 W3        30.28R
$$

REGIONAL REPORTS...DAKOTAS

CITY           SKY/WX    TMP DP  RH WIND       PRES   REMARKS
WILLISTON      LGT RAIN  41  38  89 N3        30.26R
MINOT          LGT RAIN  41  38  89 NW9       30.22R
DICKINSON      LGT RAIN  42  40  92 NW10      30.19S
BEACH          LGT RAIN  37  37 100 N8        30.26R WCI  31
CROSBY         MIX PCPN  37  37 100 NW5       30.26R
WATFORD CITY   LGT RAIN  39  39 100 N3        30.24R
BISMARCK       CLOUDY    41  40  96 CALM      30.18S FOG
GRAND FORKS    MOCLDY    35  27  72 SW5       30.17S
FARGO          PTCLDY    40  23  50 S3        30.19S
BUFFALO SD       N/A     39  38  96 NW20      30.14S WCI  29
RAPID CITY     CLOUDY    45  43  93 N14       30.17S
$$

REGIONAL REPORTS...WYOMING/IDAHO/WASHINGTON

CITY           SKY/WX    TMP DP  RH WIND       PRES   REMARKS
GILLETTE       CLOUDY    34  33  96 N8        30.23R WCI  27
SHERIDAN       CLOUDY    36  34  92 NW3       30.26S
BUFFALO WY     FLURRIES  33  32  96 NW8       30.24R WCI  26
CODY           CLOUDY    34  34 100 NE3       30.24S
YELLOWSTONE LA   N/A     27  24  89 CALM      30.24R
IDAHO FALLS    CLEAR     33  28  81 N7        30.23R WCI  27
SALMON         PTCLDY    36  30  80 S5        30.29R
BOISE          CLEAR     39  26  59 CALM      30.24S
SPOKANE        PTCLDY    40  25  55 CALM      30.28R
$$

REGIONAL REPORTS...ALBERTA

CITY           SKY/WX    TMP DP  RH WIND       PRES   REMARKS
EDMONTON       CLEAR     37  27  65 S5        30.04S
CALGARY        PTCLDY    37  23  56 SW7       30.09R
LETHBRIDGE     CLEAR     37  28  70 SW13      30.15S WCI  29
MEDICINE HAT   CLEAR     30  28  93 S6        30.17F WCI  24
$$

REGIONAL REPORTS...SASKATCHEWAN

CITY           SKY/WX    TMP DP  RH WIND       PRES   REMARKS
SWIFT CURRENT  CLEAR     32  28  86 SW10      30.22R WCI  24
REGINA         CLOUDY    34  34 100 W5        30.25S
SASKATOON      CLEAR     25  25 100 S5        30.24R
$$



USA.gov is the U.S. government's official web portal to all federal, state and local government web resources and services.